OneWeb SL0041

operational
NORAD ID: 45148 Int'l Des: 2020-008 Owner: ONEWEB Country: UK Constellation: oneweb
LEOCIRCULARPOLAR

Über OneWeb SL0041

Beschreibung wird geladen...

Live-Position

3D-Globus wird geladen...

Nächste Überflüge

Höhenverlauf

Altitude vs Time

uPlot chart will show altitude changes over time

Zweizeiliger Elementsatz

1 45148U 20008T 25257.48451221 .00000078 00000-0 10390-3 0 9991
2 45148 87.9256 61.3331 0016033 308.1775 51.7929 13.48564598280895
Epoch: 14. Sept. 2025 • Age: 21 hours

Aktueller Status

Höhe 1073.5 km
Geschwindigkeit 7.32 km/s
Subsatellitenpunkt -0.47°S, 68.37°W
Startdatum 6. Feb. 2020
Alter 5.6 years
Typ internet

Technische Details

Klassifizierung Payload
Masse 148.00 kg
Trockenmasse 140.00 kg
Gesamtmasse 148.00 kg
Länge 1.30 m
Durchmesser 1.00 m
Spannweite 5.00 m
Form Trapezoid+2 pan
Hersteller ONEWUS
Bus-Typ ARROW
Phasenstatus In Orbit
Besitzer/Staat ONEWEB/UK

Große Konstellationen

Loading constellations...